OBJECT E

基本信息
目录编号:
61739
目录名称:
OBJECT E
国际标识:
2024-199E
轨道中心:
EARTH
物体状态:
在轨
发射日期:
2024-11-04 UTC
国别:
(TBD)
轨道信息
数据来源: 国际轨道数据
星历时间: 2026-09-12T14:25:53+0800
半长轴: 6959.095km
偏心率: 0.0013632
轨道倾角: 97.322°
近地点辐角: 125.540°
升交点赤经: 87.346°
平近点角: 234.710°
近地点: 571.471km
远地点: 590.445km
周期: 96.292分钟
每日圈数: 14.95456
详细信息
发射场:
VOSTO
轨道高度:
LEO
数据来源:
AOE Working Group
参考系:
TEME
时间系统:
UTC
历元类型:
SGP4
2D轨道图
3D轨道图
轨道高度分析图
轨道倾角分析图
轨道综合分析图
查看轨道综合分析图